This is the latest recevied weather packets stored in our database for station/object VO2AGO. If no packets are shown the sender has not sent any weather packets the latest 10 day(s).
| Time | Temp. | Humidity | Pressure | Rain* | Wind** | Luminosity | Snow |
|---|---|---|---|---|---|---|---|
| 1777743351 | 6.67° C | - | - | - | 0 m/s | 1430 W/m² | - |
| 1777742902 | 6.67° C | - | - | - | 0 m/s | 1790 W/m² | - |
| 1777742450 | 6.67° C | - | - | - | 0 m/s | 1387 W/m² | - |
| 1777742000 | 7.22° C | - | - | - | 0 m/s | 1447 W/m² | - |
| 1777741550 | 7.22° C | - | - | - | 0 m/s | 1101 W/m² | - |
| 1777741101 | 6.11° C | - | - | - | 0 m/s | 1801 W/m² | - |
| 1777740651 | 6.11° C | - | - | - | 0 m/s | 1612 W/m² | - |
| 1777740201 | 5.56° C | - | - | - | 0 m/s | 1419 W/m² | - |
| 1777739751 | 5.56° C | - | - | - | 0 m/s | 1377 W/m² | - |
| 1777739301 | 6.11° C | - | - | - | 0 m/s | 1288 W/m² | - |
| 1777738851 | 7.22° C | - | - | - | 0 m/s | 1114 W/m² | - |
| 1777738401 | 6.67° C | - | - | - | 0 m/s | 1842 W/m² | - |
| 1777737952 | 6.67° C | - | - | - | 0 m/s | 1958 W/m² | - |
| 1777737501 | 6.11° C | - | - | - | 0 m/s | 1101 W/m² | - |
| 1777737051 | 5.56° C | - | - | - | 0 m/s | 1451 W/m² | - |
| 1777736600 | 5° C | - | - | - | 0 m/s | 1405 W/m² | - |
| 1777736151 | 6.11° C | - | - | - | 0 m/s | 1439 W/m² | - |
| 1777735701 | 5° C | - | - | - | 0 m/s | 1642 W/m² | - |
| 1777735252 | 5.56° C | - | - | - | 0 m/s | 1693 W/m² | - |
| 1777734801 | 5.56° C | - | - | - | 0 m/s | 1793 W/m² | - |
| 1777734351 | 5.56° C | - | - | - | 0 m/s | 1668 W/m² | - |
| 1777733901 | 5° C | - | - | - | 0 m/s | 1937 W/m² | - |
| 1777733451 | 6.11° C | - | - | - | 0 m/s | 932 W/m² | - |
| 1777733001 | 5.56° C | - | - | - | 0 m/s | 1214 W/m² | - |
| 1777732551 | 6.11° C | - | - | - | 0 m/s | 1071 W/m² | - |
* Rain since midnight (hover to see other rain measurements)
** Current wind speed in m/s (hover to see current wind gust speed)